Time,TemperatureF,DewpointF,PressureIn,WindDirection,WindDirectionDegrees,WindSpeedMPH,WindSpeedGustMPH,Humidity,HourlyPrecipIn,Conditions,Clouds,dailyrainin,SoftwareType,DateUTC
2013-03-23 00:00:00,42.7,40.5,29.97,ESE,105,0.0,8.0,92,0.13,,SKC,0.14,VWS V13.00,2013-03-23 05:00:00,
2013-03-23 00:05:00,42.7,40.5,29.96,ENE,75,4.0,6.0,92,0.12,,SKC,0.00,VWS V13.00,2013-03-23 05:05:00,
2013-03-23 00:10:00,42.8,40.6,29.97,ENE,70,3.0,7.0,92,0.12,,SKC,0.00,VWS V13.00,2013-03-23 05:10:00,
2013-03-23 00:15:00,42.8,40.6,29.97,ESE,122,3.0,7.0,92,0.12,,SKC,0.00,VWS V13.00,2013-03-23 05:15:00,
2013-03-23 00:20:00,42.8,40.6,29.96,East,88,2.0,7.0,92,0.12,,SKC,0.00,VWS V13.00,2013-03-23 05:20:00,
2013-03-23 00:25:00,42.8,40.6,29.96,ENE,65,5.0,7.0,92,0.12,,SKC,0.00,VWS V13.00,2013-03-23 05:25:00,
2013-03-23 00:30:00,42.9,41.0,29.96,East,84,7.0,7.0,93,0.12,,SKC,0.00,VWS V13.00,2013-03-23 05:30:00,
2013-03-23 00:35:00,43.0,41.1,29.95,East,98,6.0,8.0,93,0.10,,SKC,0.00,VWS V13.00,2013-03-23 05:35:00,
2013-03-23 00:40:00,43.1,40.9,29.95,ESE,118,1.0,8.0,92,0.10,,SKC,0.00,VWS V13.00,2013-03-23 05:40:00,
2013-03-23 00:45:00,43.1,40.9,29.95,ESE,102,1.0,8.0,92,0.10,,SKC,0.00,VWS V13.00,2013-03-23 05:45:00,
2013-03-23 00:50:00,43.3,41.4,29.94,East,86,4.0,8.0,93,0.10,,SKC,0.00,VWS V13.00,2013-03-23 05:50:00,
2013-03-23 00:55:00,43.4,41.5,29.96,NE,56,6.0,8.0,93,0.10,,SKC,0.00,VWS V13.00,2013-03-23 05:55:00,
2013-03-23 01:00:00,43.6,41.7,29.95,ESE,109,1.0,8.0,93,0.10,,SKC,0.00,VWS V13.00,2013-03-23 06:00:00,
2013-03-23 01:05:00,43.5,41.6,29.94,East,86,2.0,5.0,93,0.00,,SKC,0.00,VWS V13.00,2013-03-23 06:05:00,
2013-03-23 01:10:00,43.5,41.6,29.94,ESE,113,2.0,7.0,93,0.00,,SKC,0.00,VWS V13.00,2013-03-23 06:10:00,
2013-03-23 01:15:00,43.6,41.7,29.94,ESE,112,1.0,7.0,93,0.00,,SKC,0.00,VWS V13.00,2013-03-23 06:15:00,
2013-03-23 01:20:00,43.6,41.7,29.93,ESE,116,4.0,7.0,93,0.00,,SKC,0.00,VWS V13.00,2013-03-23 06:20:00,
2013-03-23 01:25:00,43.8,41.9,29.94,SSE,158,4.0,8.0,93,0.00,,SKC,0.00,VWS V13.00,2013-03-23 06:25:00,
2013-03-23 01:30:00,43.9,42.0,29.94,East,94,3.0,8.0,93,0.02,,SKC,0.02,VWS V13.00,2013-03-23 06:30:00,
2013-03-23 01:35:00,44.0,42.1,29.93,East,91,8.0,8.0,93,0.03,,SKC,0.03,VWS V13.00,2013-03-23 06:35:00,
2013-03-23 01:40:00,44.0,42.4,29.93,East,82,6.0,9.0,94,0.03,,SKC,0.03,VWS V13.00,2013-03-23 06:40:00,
2013-03-23 01:45:00,44.0,42.4,29.92,East,80,7.0,9.0,94,0.04,,SKC,0.04,VWS V13.00,2013-03-23 06:45:00,
2013-03-23 01:50:00,44.0,42.4,29.92,East,87,7.0,12.0,94,0.04,,SKC,0.04,VWS V13.00,2013-03-23 06:50:00,
2013-03-23 01:55:00,44.0,42.4,29.92,East,98,4.0,12.0,94,0.04,,SKC,0.04,VWS V13.00,2013-03-23 06:55:00,
2013-03-23 02:00:00,44.0,42.4,29.93,East,93,8.0,12.0,94,0.04,,SKC,0.04,VWS V13.00,2013-03-23 07:00:00,
2013-03-23 02:05:00,44.1,42.5,29.93,ESE,109,4.0,7.0,94,0.04,,SKC,0.04,VWS V13.00,2013-03-23 07:05:00,
2013-03-23 02:10:00,44.1,42.5,29.93,ESE,103,2.0,7.0,94,0.04,,SKC,0.04,VWS V13.00,2013-03-23 07:10:00,
2013-03-23 02:15:00,44.1,42.5,29.93,SE,131,1.0,7.0,94,0.04,,SKC,0.04,VWS V13.00,2013-03-23 07:15:00,
2013-03-23 02:20:00,44.2,42.6,29.92,East,101,5.0,7.0,94,0.04,,SKC,0.04,VWS V13.00,2013-03-23 07:20:00,
2013-03-23 02:24:00,44.1,42.5,29.91,ESE,115,4.0,9.0,94,0.04,,SKC,0.04,VWS V13.00,2013-03-23 07:24:00,
2013-03-23 02:29:00,44.1,42.5,29.91,East,95,6.0,9.0,94,0.04,,SKC,0.04,VWS V13.00,2013-03-23 07:29:00,
2013-03-23 02:34:00,44.1,42.5,29.91,East,97,6.0,8.0,94,0.02,,SKC,0.04,VWS V13.00,2013-03-23 07:34:00,
2013-03-23 02:39:00,44.2,42.6,29.91,East,93,7.0,10.0,94,0.02,,SKC,0.04,VWS V13.00,2013-03-23 07:39:00,
2013-03-23 02:44:00,44.2,42.6,29.91,East,96,6.0,10.0,94,0.02,,SKC,0.04,VWS V13.00,2013-03-23 07:44:00,
2013-03-23 02:49:00,44.2,42.6,29.91,East,83,7.0,10.0,94,0.02,,SKC,0.04,VWS V13.00,2013-03-23 07:49:00,
2013-03-23 02:54:00,44.2,42.9,29.93,NNE,19,5.0,10.0,95,0.02,,SKC,0.04,VWS V13.00,2013-03-23 07:54:00,
2013-03-23 02:59:00,44.2,42.9,29.93,NE,50,7.0,10.0,95,0.02,,SKC,0.04,VWS V13.00,2013-03-23 07:59:00,
2013-03-23 03:04:00,44.3,43.0,29.91,ENE,65,7.0,9.0,95,0.00,,SKC,0.04,VWS V13.00,2013-03-23 08:04:00,
2013-03-23 03:09:00,44.3,43.0,29.91,East,79,6.0,9.0,95,0.00,,SKC,0.04,VWS V13.00,2013-03-23 08:09:00,
2013-03-23 03:14:00,44.2,42.9,29.91,East,93,6.0,10.0,95,0.00,,SKC,0.05,VWS V13.00,2013-03-23 08:14:00,
2013-03-23 03:19:00,44.2,42.9,29.90,East,90,8.0,10.0,95,0.01,,SKC,0.05,VWS V13.00,2013-03-23 08:19:00,
2013-03-23 03:24:00,44.2,42.9,29.90,East,93,9.0,11.0,95,0.02,,SKC,0.06,VWS V13.00,2013-03-23 08:24:00,
2013-03-23 03:29:00,44.2,42.9,29.89,East,101,8.0,11.0,95,0.02,,SKC,0.06,VWS V13.00,2013-03-23 08:29:00,
2013-03-23 03:34:00,44.2,42.9,29.89,East,98,7.0,12.0,95,0.02,,SKC,0.06,VWS V13.00,2013-03-23 08:34:00,
2013-03-23 03:39:00,44.1,42.8,29.89,SE,129,6.0,12.0,95,0.02,,SKC,0.06,VWS V13.00,2013-03-23 08:39:00,
2013-03-23 03:44:00,44.2,42.9,29.90,ESE,107,10.0,12.0,95,0.02,,SKC,0.06,VWS V13.00,2013-03-23 08:44:00,
2013-03-23 03:49:00,44.2,42.9,29.89,ENE,70,7.0,13.0,95,0.02,,SKC,0.06,VWS V13.00,2013-03-23 08:49:00,
2013-03-23 03:54:00,44.2,42.9,29.89,ENE,78,8.0,13.0,95,0.02,,SKC,0.06,VWS V13.00,2013-03-23 08:54:00,
2013-03-23 03:59:00,44.2,42.9,29.88,East,96,9.0,13.0,95,0.02,,SKC,0.06,VWS V13.00,2013-03-23 08:59:00,
2013-03-23 04:04:00,44.2,42.9,29.87,SE,124,6.0,9.0,95,0.02,,SKC,0.06,VWS V13.00,2013-03-23 09:04:00,
2013-03-23 04:09:00,44.2,42.9,29.87,ESE,120,7.0,11.0,95,0.02,,SKC,0.06,VWS V13.00,2013-03-23 09:09:00,
2013-03-23 04:14:00,44.3,43.0,29.88,East,96,5.0,11.0,95,0.02,,SKC,0.06,VWS V13.00,2013-03-23 09:14:00,
2013-03-23 04:19:00,44.3,43.0,29.90,ESE,120,0.0,11.0,95,0.02,,SKC,0.06,VWS V13.00,2013-03-23 09:19:00,
2013-03-23 04:24:00,44.4,43.1,29.91,SE,131,1.0,11.0,95,0.03,,SKC,0.08,VWS V13.00,2013-03-23 09:24:00,
2013-03-23 04:29:00,44.4,43.1,29.90,ESE,104,8.0,11.0,95,0.18,,SKC,0.22,VWS V13.00,2013-03-23 09:29:00,
2013-03-23 04:34:00,44.2,42.9,29.90,ESE,102,4.0,6.0,95,0.26,,SKC,0.32,VWS V13.00,2013-03-23 09:34:00,
2013-03-23 04:39:00,44.1,42.8,29.89,East,92,7.0,10.0,95,0.28,,SKC,0.34,VWS V13.00,2013-03-23 09:39:00,
2013-03-23 04:44:00,44.0,42.7,29.89,East,84,5.0,10.0,95,0.28,,SKC,0.34,VWS V13.00,2013-03-23 09:44:00,
2013-03-23 04:49:00,44.0,42.9,29.90,East,96,4.0,10.0,96,0.28,,SKC,0.34,VWS V13.00,2013-03-23 09:49:00,
2013-03-23 04:54:00,44.0,42.9,29.90,East,93,7.0,10.0,96,0.29,,SKC,0.35,VWS V13.00,2013-03-23 09:54:00,
2013-03-23 04:59:00,44.0,42.9,29.90,East,90,5.0,10.0,96,0.30,,SKC,0.36,VWS V13.00,2013-03-23 09:59:00,
2013-03-23 05:04:00,44.0,42.9,29.90,ENE,78,5.0,7.0,96,0.31,,SKC,0.37,VWS V13.00,2013-03-23 10:04:00,
2013-03-23 05:09:00,44.0,42.9,29.90,East,90,6.0,9.0,96,0.32,,SKC,0.38,VWS V13.00,2013-03-23 10:09:00,
2013-03-23 05:14:00,43.9,42.8,29.91,East,94,2.0,9.0,96,0.34,,SKC,0.40,VWS V13.00,2013-03-23 10:14:00,
2013-03-23 05:19:00,43.9,42.8,29.91,SE,138,5.0,9.0,96,0.35,,SKC,0.41,VWS V13.00,2013-03-23 10:19:00,
2013-03-23 05:24:00,43.9,42.8,29.92,SSE,167,6.0,10.0,96,0.36,,SKC,0.42,VWS V13.00,2013-03-23 10:24:00,
2013-03-23 05:29:00,44.0,42.9,29.92,ESE,104,3.0,10.0,96,0.37,,SKC,0.43,VWS V13.00,2013-03-23 10:29:00,
2013-03-23 05:34:00,44.0,42.9,29.93,SE,127,1.0,4.0,96,0.15,,SKC,0.45,VWS V13.00,2013-03-23 10:34:00,
2013-03-23 05:39:00,44.0,42.9,29.92,East,90,2.0,6.0,96,0.16,,SKC,0.45,VWS V13.00,2013-03-23 10:39:00,
2013-03-23 05:44:00,44.0,42.9,29.91,ESE,103,5.0,7.0,96,0.17,,SKC,0.46,VWS V13.00,2013-03-23 10:44:00,
2013-03-23 05:49:00,44.0,42.9,29.91,ESE,114,8.0,9.0,96,0.17,,SKC,0.46,VWS V13.00,2013-03-23 10:49:00,
2013-03-23 05:54:00,44.0,42.9,29.92,East,94,4.0,10.0,96,0.18,,SKC,0.47,VWS V13.00,2013-03-23 10:54:00,
2013-03-23 05:59:00,44.0,42.9,29.92,East,83,5.0,10.0,96,0.18,,SKC,0.47,VWS V13.00,2013-03-23 10:59:00,
2013-03-23 06:04:00,44.0,42.9,29.92,East,83,6.0,8.0,96,0.12,,SKC,0.48,VWS V13.00,2013-03-23 11:04:00,
2013-03-23 06:09:00,44.0,42.9,29.92,East,82,3.0,8.0,96,0.13,,SKC,0.49,VWS V13.00,2013-03-23 11:09:00,
2013-03-23 06:14:00,44.0,42.9,29.91,East,95,4.0,9.0,96,0.13,,SKC,0.49,VWS V13.00,2013-03-23 11:14:00,
2013-03-23 06:19:00,43.9,42.8,29.92,ESE,112,4.0,10.0,96,0.14,,SKC,0.50,VWS V13.00,2013-03-23 11:19:00,
2013-03-23 06:24:00,43.8,42.7,29.93,SSE,162,2.0,10.0,96,0.15,,SKC,0.51,VWS V13.00,2013-03-23 11:24:00,
2013-03-23 06:29:00,43.8,42.7,29.91,SSE,156,5.0,10.0,96,0.16,,SKC,0.52,VWS V13.00,2013-03-23 11:29:00,
2013-03-23 06:34:00,43.7,42.6,29.91,SE,130,7.0,10.0,96,0.09,,SKC,0.53,VWS V13.00,2013-03-23 11:34:00,
2013-03-23 06:39:00,43.7,42.6,29.92,East,95,2.0,10.0,96,0.10,,SKC,0.54,VWS V13.00,2013-03-23 11:39:00,
2013-03-23 06:44:00,43.7,42.6,29.92,SSE,153,6.0,10.0,96,0.11,,SKC,0.55,VWS V13.00,2013-03-23 11:44:00,
2013-03-23 06:49:00,43.7,42.6,29.91,East,101,4.0,10.0,96,0.11,,SKC,0.55,VWS V13.00,2013-03-23 11:49:00,
2013-03-23 06:54:00,43.7,42.6,29.92,East,94,5.0,10.0,96,0.12,,SKC,0.56,VWS V13.00,2013-03-23 11:54:00,
2013-03-23 06:59:00,43.7,42.6,29.92,East,94,5.0,10.0,96,0.13,,SKC,0.57,VWS V13.00,2013-03-23 11:59:00,
2013-03-23 07:04:00,43.8,42.7,29.93,SE,128,6.0,6.0,96,0.09,,SKC,0.57,VWS V13.00,2013-03-23 12:04:00,
2013-03-23 07:09:00,43.8,42.7,29.95,ENE,62,4.0,7.0,96,0.10,,SKC,0.58,VWS V13.00,2013-03-23 12:09:00,
2013-03-23 07:14:00,43.9,42.8,29.95,ESE,112,4.0,7.0,96,0.11,,SKC,0.59,VWS V13.00,2013-03-23 12:14:00,
2013-03-23 07:19:00,43.9,42.8,29.95,ESE,107,4.0,7.0,96,0.12,,SKC,0.60,VWS V13.00,2013-03-23 12:19:00,
2013-03-23 07:24:00,43.9,42.8,29.95,ESE,114,2.0,7.0,96,0.13,,SKC,0.61,VWS V13.00,2013-03-23 12:24:00,
2013-03-23 07:29:00,43.9,42.8,29.94,ESE,105,4.0,7.0,96,0.14,,SKC,0.62,VWS V13.00,2013-03-23 12:29:00,
2013-03-23 07:34:00,44.0,43.2,29.93,SE,127,6.0,8.0,97,0.11,,SKC,0.64,VWS V13.00,2013-03-23 12:34:00,
2013-03-23 07:39:00,43.9,43.1,29.91,East,101,6.0,9.0,97,0.12,,SKC,0.65,VWS V13.00,2013-03-23 12:39:00,
2013-03-23 07:44:00,43.9,43.1,29.91,East,101,6.0,11.0,97,0.12,,SKC,0.65,VWS V13.00,2013-03-23 12:44:00,
2013-03-23 07:49:00,44.0,43.2,29.91,ENE,78,4.0,11.0,97,0.13,,SKC,0.66,VWS V13.00,2013-03-23 12:49:00,
2013-03-23 07:54:00,44.0,43.2,29.92,ESE,106,8.0,11.0,97,0.13,,SKC,0.66,VWS V13.00,2013-03-23 12:54:00,
2013-03-23 07:59:00,44.1,43.3,29.91,ESE,105,4.0,11.0,97,0.13,,SKC,0.66,VWS V13.00,2013-03-23 12:59:00,
2013-03-23 08:04:00,44.2,43.4,29.92,East,98,7.0,10.0,97,0.09,,SKC,0.66,VWS V13.00,2013-03-23 13:04:00,
2013-03-23 08:09:00,44.3,43.5,29.92,East,94,4.0,11.0,97,0.09,,SKC,0.66,VWS V13.00,2013-03-23 13:09:00,
2013-03-23 08:14:00,44.4,43.6,29.92,ESE,114,6.0,11.0,97,0.09,,SKC,0.66,VWS V13.00,2013-03-23 13:14:00,
2013-03-23 08:19:00,44.5,43.7,29.91,ESE,113,2.0,14.0,97,0.09,,SKC,0.66,VWS V13.00,2013-03-23 13:19:00,
2013-03-23 08:24:00,44.7,43.9,29.91,ESE,113,9.0,14.0,97,0.09,,SKC,0.66,VWS V13.00,2013-03-23 13:24:00,
2013-03-23 08:29:00,44.9,43.8,29.92,ESE,112,7.0,14.0,96,0.09,,SKC,0.66,VWS V13.00,2013-03-23 13:29:00,
2013-03-23 08:34:00,45.0,43.9,29.92,ESE,121,6.0,10.0,96,0.03,,SKC,0.66,VWS V13.00,2013-03-23 13:34:00,
2013-03-23 08:39:00,45.1,44.0,29.92,SE,128,0.0,12.0,96,0.03,,SKC,0.66,VWS V13.00,2013-03-23 13:39:00,
2013-03-23 08:44:00,45.3,44.2,29.92,SE,126,3.0,12.0,96,0.03,,SKC,0.66,VWS V13.00,2013-03-23 13:44:00,
2013-03-23 08:49:00,45.5,44.4,29.92,ESE,105,2.0,12.0,96,0.03,,SKC,0.66,VWS V13.00,2013-03-23 13:49:00,
2013-03-23 08:54:00,45.6,44.5,29.92,SSE,162,6.0,12.0,96,0.03,,SKC,0.66,VWS V13.00,2013-03-23 13:54:00,
2013-03-23 08:59:00,45.7,44.6,29.92,SSE,150,6.0,12.0,96,0.03,,SKC,0.66,VWS V13.00,2013-03-23 13:59:00,
2013-03-23 09:04:00,45.9,44.8,29.93,ESE,103,3.0,6.0,96,0.00,,SKC,0.66,VWS V13.00,2013-03-23 14:04:00,
2013-03-23 09:09:00,46.0,44.9,29.93,SSE,167,5.0,9.0,96,0.00,,SKC,0.66,VWS V13.00,2013-03-23 14:09:00,
2013-03-23 09:14:00,45.9,44.8,29.93,SE,131,5.0,9.0,96,0.00,,SKC,0.66,VWS V13.00,2013-03-23 14:14:00,
2013-03-23 09:19:00,46.0,44.9,29.93,East,96,4.0,9.0,96,0.00,,SKC,0.66,VWS V13.00,2013-03-23 14:19:00,
2013-03-23 09:24:00,46.0,44.9,29.93,SE,142,4.0,9.0,96,0.00,,SKC,0.66,VWS V13.00,2013-03-23 14:24:00,
2013-03-23 09:29:00,46.1,45.0,29.93,SE,129,4.0,9.0,96,0.00,,SKC,0.66,VWS V13.00,2013-03-23 14:29:00,
2013-03-23 09:34:00,46.1,45.0,29.93,ESE,115,1.0,5.0,96,0.00,,SKC,0.66,VWS V13.00,2013-03-23 14:34:00,
2013-03-23 09:39:00,46.2,45.1,29.93,ESE,103,2.0,8.0,96,0.00,,SKC,0.66,VWS V13.00,2013-03-23 14:39:00,
2013-03-23 09:44:00,46.4,45.3,29.93,East,97,5.0,8.0,96,0.00,,SKC,0.66,VWS V13.00,2013-03-23 14:44:00,
2013-03-23 09:49:00,46.5,45.4,29.92,ESE,114,5.0,9.0,96,0.00,,SKC,0.66,VWS V13.00,2013-03-23 14:49:00,
2013-03-23 09:54:00,46.5,45.4,29.93,SE,134,5.0,10.0,96,0.00,,SKC,0.66,VWS V13.00,2013-03-23 14:54:00,
2013-03-23 09:59:00,46.5,45.4,29.93,ESE,115,2.0,10.0,96,0.00,,SKC,0.66,VWS V13.00,2013-03-23 14:59:00,
2013-03-23 10:04:00,46.5,45.4,29.93,ESE,115,5.0,5.0,96,0.00,,SKC,0.66,VWS V13.00,2013-03-23 15:04:00,
2013-03-23 10:09:00,46.5,45.4,29.93,ESE,107,4.0,7.0,96,0.00,,SKC,0.66,VWS V13.00,2013-03-23 15:09:00,
2013-03-23 10:14:00,46.6,45.5,29.93,SE,138,5.0,9.0,96,0.00,,SKC,0.66,VWS V13.00,2013-03-23 15:14:00,
2013-03-23 10:19:00,46.7,45.6,29.93,ESE,113,4.0,9.0,96,0.00,,SKC,0.66,VWS V13.00,2013-03-23 15:19:00,
2013-03-23 10:24:00,46.9,45.8,29.93,ESE,118,3.0,9.0,96,0.00,,SKC,0.66,VWS V13.00,2013-03-23 15:24:00,
2013-03-23 10:29:00,47.2,46.1,29.93,South,178,2.0,9.0,96,0.00,,SKC,0.66,VWS V13.00,2013-03-23 15:29:00,
2013-03-23 10:34:00,47.4,46.3,29.93,SE,144,8.0,8.0,96,0.00,,SKC,0.66,VWS V13.00,2013-03-23 15:34:00,
2013-03-23 10:39:00,47.6,46.2,29.92,SSE,166,3.0,10.0,95,0.00,,SKC,0.66,VWS V13.00,2013-03-23 15:39:00,
2013-03-23 10:44:00,47.7,46.3,29.93,ESE,115,2.0,10.0,95,0.00,,SKC,0.66,VWS V13.00,2013-03-23 15:44:00,
2013-03-23 10:49:00,47.9,46.5,29.93,East,94,3.0,10.0,95,0.00,,SKC,0.66,VWS V13.00,2013-03-23 15:49:00,
2013-03-23 10:54:00,47.9,46.5,29.93,ESE,104,5.0,10.0,95,0.00,,SKC,0.66,VWS V13.00,2013-03-23 15:54:00,
2013-03-23 10:59:00,48.0,46.6,29.92,East,100,6.0,10.0,95,0.00,,SKC,0.66,VWS V13.00,2013-03-23 15:59:00,
2013-03-23 11:04:00,48.2,46.8,29.92,ESE,105,5.0,7.0,95,0.00,,SKC,0.66,VWS V13.00,2013-03-23 16:04:00,
2013-03-23 11:09:00,48.4,47.0,29.92,East,82,6.0,8.0,95,0.00,,SKC,0.66,VWS V13.00,2013-03-23 16:09:00,
2013-03-23 11:14:00,48.7,47.3,29.91,East,81,6.0,8.0,95,0.00,,SKC,0.66,VWS V13.00,2013-03-23 16:14:00,
2013-03-23 11:19:00,49.0,47.6,29.91,East,98,6.0,9.0,95,0.00,,SKC,0.66,VWS V13.00,2013-03-23 16:19:00,
2013-03-23 11:24:00,49.3,47.9,29.91,East,99,4.0,9.0,95,0.00,,SKC,0.66,VWS V13.00,2013-03-23 16:24:00,
2013-03-23 11:29:00,49.8,48.7,29.91,ESE,103,4.0,9.0,96,0.00,,SKC,0.66,VWS V13.00,2013-03-23 16:29:00,
2013-03-23 11:34:00,49.9,48.2,29.91,ENE,78,5.0,6.0,94,0.00,,SKC,0.66,VWS V13.00,2013-03-23 16:34:00,
2013-03-23 11:39:00,50.2,48.5,29.91,East,88,4.0,7.0,94,0.00,,SKC,0.66,VWS V13.00,2013-03-23 16:39:00,
2013-03-23 11:44:00,50.6,48.7,29.90,East,87,6.0,7.0,93,0.00,,SKC,0.66,VWS V13.00,2013-03-23 16:44:00,
2013-03-23 11:49:00,50.5,48.6,29.90,ENE,76,6.0,8.0,93,0.00,,SKC,0.66,VWS V13.00,2013-03-23 16:49:00,
2013-03-23 11:54:00,50.7,48.8,29.90,ESE,109,9.0,9.0,93,0.00,,SKC,0.66,VWS V13.00,2013-03-23 16:54:00,
2013-03-23 11:59:00,50.9,49.0,29.90,SE,144,4.0,9.0,93,0.00,,SKC,0.66,VWS V13.00,2013-03-23 16:59:00,
2013-03-23 12:04:00,51.1,48.9,29.90,East,94,2.0,7.0,92,0.00,,SKC,0.66,VWS V13.00,2013-03-23 17:04:00,
2013-03-23 12:09:00,51.0,48.8,29.90,ESE,103,5.0,7.0,92,0.00,,SKC,0.66,VWS V13.00,2013-03-23 17:09:00,
2013-03-23 12:14:00,51.2,49.0,29.90,ESE,115,5.0,8.0,92,0.00,,SKC,0.66,VWS V13.00,2013-03-23 17:14:00,
2013-03-23 12:19:00,51.2,48.7,29.89,East,95,3.0,8.0,91,0.00,,SKC,0.66,VWS V13.00,2013-03-23 17:19:00,
2013-03-23 12:24:00,51.2,49.0,29.89,SE,132,3.0,9.0,92,0.00,,SKC,0.66,VWS V13.00,2013-03-23 17:24:00,
2013-03-23 12:29:00,51.4,49.2,29.89,East,99,7.0,9.0,92,0.00,,SKC,0.66,VWS V13.00,2013-03-23 17:29:00,
2013-03-23 12:34:00,51.4,48.9,29.89,ESE,105,4.0,8.0,91,0.00,,SKC,0.66,VWS V13.00,2013-03-23 17:34:00,
2013-03-23 12:39:00,51.5,49.3,29.89,ESE,103,6.0,8.0,92,0.00,,SKC,0.66,VWS V13.00,2013-03-23 17:39:00,
2013-03-23 12:44:00,51.6,49.4,29.89,ESE,108,3.0,9.0,92,0.00,,SKC,0.66,VWS V13.00,2013-03-23 17:44:00,
2013-03-23 12:49:00,51.9,49.7,29.88,ESE,104,5.0,9.0,92,0.00,,SKC,0.66,VWS V13.00,2013-03-23 17:49:00,
2013-03-23 12:54:00,52.3,49.8,29.88,East,86,7.0,10.0,91,0.00,,SKC,0.66,VWS V13.00,2013-03-23 17:54:00,
2013-03-23 12:59:00,52.4,49.6,29.88,ESE,122,4.0,10.0,90,0.00,,SKC,0.66,VWS V13.00,2013-03-23 17:59:00,
2013-03-23 13:04:00,52.3,49.8,29.88,East,89,5.0,8.0,91,0.00,,SKC,0.66,VWS V13.00,2013-03-23 18:04:00,
2013-03-23 13:09:00,52.5,50.0,29.88,ESE,112,6.0,8.0,91,0.00,,SKC,0.66,VWS V13.00,2013-03-23 18:09:00,
2013-03-23 13:14:00,52.7,50.2,29.88,SSE,157,2.0,8.0,91,0.00,,SKC,0.66,VWS V13.00,2013-03-23 18:14:00,
2013-03-23 13:19:00,52.8,49.7,29.88,ESE,113,4.0,8.0,89,0.00,,SKC,0.66,VWS V13.00,2013-03-23 18:19:00,
2013-03-23 13:24:00,52.6,49.5,29.88,SE,144,1.0,8.0,89,0.00,,SKC,0.66,VWS V13.00,2013-03-23 18:24:00,
2013-03-23 13:29:00,52.6,49.8,29.87,East,101,6.0,8.0,90,0.00,,SKC,0.66,VWS V13.00,2013-03-23 18:29:00,
2013-03-23 13:34:00,52.6,49.5,29.87,SE,145,4.0,7.0,89,0.00,,SKC,0.66,VWS V13.00,2013-03-23 18:34:00,
2013-03-23 13:39:00,52.6,49.5,29.87,ESE,123,2.0,7.0,89,0.00,,SKC,0.66,VWS V13.00,2013-03-23 18:39:00,
2013-03-23 13:44:00,52.6,49.8,29.87,East,92,4.0,8.0,90,0.00,,SKC,0.66,VWS V13.00,2013-03-23 18:44:00,
2013-03-23 13:49:00,52.7,49.8,29.87,East,87,4.0,8.0,90,0.00,,SKC,0.66,VWS V13.00,2013-03-23 18:49:00,
2013-03-23 13:54:00,52.7,49.5,29.87,East,84,2.0,8.0,89,0.00,,SKC,0.66,VWS V13.00,2013-03-23 18:54:00,
2013-03-23 13:59:00,52.8,50.0,29.87,East,90,4.0,8.0,90,0.00,,SKC,0.66,VWS V13.00,2013-03-23 18:59:00,
2013-03-23 14:04:00,53.1,50.0,29.87,East,98,1.0,4.0,89,0.00,,SKC,0.66,VWS V13.00,2013-03-23 19:04:00,
2013-03-23 14:09:00,53.3,49.8,29.86,ESE,107,4.0,6.0,88,0.00,,SKC,0.66,VWS V13.00,2013-03-23 19:09:00,
2013-03-23 14:14:00,53.3,50.2,29.86,East,88,2.0,6.0,89,0.00,,SKC,0.66,VWS V13.00,2013-03-23 19:14:00,
2013-03-23 14:19:00,53.6,50.1,29.85,ENE,78,6.0,7.0,88,0.00,,SKC,0.66,VWS V13.00,2013-03-23 19:19:00,
2013-03-23 14:24:00,53.6,49.8,29.84,ESE,120,3.0,7.0,87,0.00,,SKC,0.66,VWS V13.00,2013-03-23 19:24:00,
2013-03-23 14:29:00,53.6,50.4,29.84,East,89,4.0,7.0,89,0.00,,SKC,0.66,VWS V13.00,2013-03-23 19:29:00,
2013-03-23 14:34:00,53.9,50.7,29.84,East,82,6.0,8.0,89,0.00,,SKC,0.66,VWS V13.00,2013-03-23 19:34:00,
2013-03-23 14:39:00,54.0,50.2,29.83,ENE,58,7.0,8.0,87,0.00,,SKC,0.66,VWS V13.00,2013-03-23 19:39:00,
2013-03-23 14:44:00,54.2,50.7,29.82,ESE,110,7.0,8.0,88,0.00,,SKC,0.66,VWS V13.00,2013-03-23 19:44:00,
2013-03-23 14:49:00,54.5,50.7,29.82,ESE,103,6.0,10.0,87,0.00,,SKC,0.66,VWS V13.00,2013-03-23 19:49:00,
2013-03-23 14:54:00,54.7,50.9,29.82,ENE,65,9.0,10.0,87,0.00,,SKC,0.66,VWS V13.00,2013-03-23 19:54:00,
2013-03-23 14:59:00,54.6,50.8,29.82,ENE,69,7.0,10.0,87,0.00,,SKC,0.66,VWS V13.00,2013-03-23 19:59:00,
2013-03-23 15:04:00,54.8,51.0,29.82,East,83,7.0,9.0,87,0.00,,SKC,0.66,VWS V13.00,2013-03-23 20:04:00,
2013-03-23 15:09:00,55.2,51.4,29.82,NE,35,7.0,9.0,87,0.00,,SKC,0.66,VWS V13.00,2013-03-23 20:09:00,
2013-03-23 15:14:00,55.2,51.1,29.82,ESE,115,7.0,9.0,86,0.00,,SKC,0.66,VWS V13.00,2013-03-23 20:14:00,
2013-03-23 15:19:00,55.1,51.3,29.81,East,97,7.0,9.0,87,0.00,,SKC,0.66,VWS V13.00,2013-03-23 20:19:00,
2013-03-23 15:24:00,55.0,50.9,29.82,NE,55,2.0,9.0,86,0.00,,SKC,0.66,VWS V13.00,2013-03-23 20:24:00,
2013-03-23 15:29:00,54.7,50.9,29.83,East,93,4.0,9.0,87,0.00,,SKC,0.66,VWS V13.00,2013-03-23 20:29:00,
2013-03-23 15:34:00,54.5,50.7,29.84,East,99,2.0,4.0,87,0.00,,SKC,0.66,VWS V13.00,2013-03-23 20:34:00,
2013-03-23 15:39:00,54.4,50.6,29.84,ESE,104,6.0,7.0,87,0.00,,SKC,0.66,VWS V13.00,2013-03-23 20:39:00,
2013-03-23 15:44:00,54.4,50.6,29.83,East,87,5.0,7.0,87,0.00,,SKC,0.66,VWS V13.00,2013-03-23 20:44:00,
2013-03-23 15:49:00,54.4,50.6,29.83,East,99,4.0,7.0,87,0.00,,SKC,0.66,VWS V13.00,2013-03-23 20:49:00,
2013-03-23 15:54:00,54.4,50.6,29.84,East,82,4.0,7.0,87,0.00,,SKC,0.66,VWS V13.00,2013-03-23 20:54:00,
2013-03-23 15:59:00,54.5,50.7,29.83,ESE,109,4.0,7.0,87,0.00,,SKC,0.66,VWS V13.00,2013-03-23 20:59:00,
2013-03-23 16:04:00,54.4,50.6,29.83,East,90,6.0,7.0,87,0.00,,SKC,0.66,VWS V13.00,2013-03-23 21:04:00,
2013-03-23 16:09:00,54.5,51.0,29.82,East,90,5.0,7.0,88,0.00,,SKC,0.66,VWS V13.00,2013-03-23 21:09:00,
2013-03-23 16:14:00,54.5,50.7,29.82,East,82,5.0,8.0,87,0.00,,SKC,0.66,VWS V13.00,2013-03-23 21:14:00,
2013-03-23 16:19:00,54.4,50.6,29.82,East,101,8.0,10.0,87,0.00,,SKC,0.66,VWS V13.00,2013-03-23 21:19:00,
2013-03-23 16:24:00,54.4,50.9,29.82,East,98,6.0,10.0,88,0.00,,SKC,0.66,VWS V13.00,2013-03-23 21:24:00,
2013-03-23 16:29:00,54.3,50.5,29.82,East,94,6.0,10.0,87,0.00,,SKC,0.66,VWS V13.00,2013-03-23 21:29:00,
2013-03-23 16:34:00,54.3,50.8,29.81,ENE,74,7.0,9.0,88,0.00,,SKC,0.66,VWS V13.00,2013-03-23 21:34:00,
2013-03-23 16:39:00,54.4,50.9,29.82,East,92,7.0,11.0,88,0.00,,SKC,0.66,VWS V13.00,2013-03-23 21:39:00,
2013-03-23 16:44:00,54.4,50.6,29.82,East,94,9.0,13.0,87,0.00,,SKC,0.66,VWS V13.00,2013-03-23 21:44:00,
2013-03-23 16:49:00,54.3,50.8,29.82,ENE,63,10.0,13.0,88,0.00,,SKC,0.66,VWS V13.00,2013-03-23 21:49:00,
2013-03-23 16:54:00,54.2,50.4,29.82,ENE,62,10.0,15.0,87,0.00,,SKC,0.66,VWS V13.00,2013-03-23 21:54:00,
2013-03-23 16:59:00,54.1,50.3,29.82,East,80,8.0,15.0,87,0.00,,SKC,0.66,VWS V13.00,2013-03-23 21:59:00,
2013-03-23 17:04:00,53.7,49.9,29.81,ENE,77,8.0,15.0,87,0.00,,SKC,0.66,VWS V13.00,2013-03-23 22:04:00,
2013-03-23 17:09:00,53.5,50.0,29.81,East,86,12.0,15.0,88,0.00,,SKC,0.66,VWS V13.00,2013-03-23 22:09:00,
2013-03-23 17:14:00,53.5,50.3,29.81,ENE,66,11.0,15.0,89,0.00,,SKC,0.66,VWS V13.00,2013-03-23 22:14:00,
2013-03-23 17:19:00,53.5,50.3,29.80,ENE,76,9.0,15.0,89,0.00,,SKC,0.66,VWS V13.00,2013-03-23 22:19:00,
2013-03-23 17:24:00,53.4,50.2,29.81,NE,55,14.0,15.0,89,0.00,,SKC,0.66,VWS V13.00,2013-03-23 22:24:00,
2013-03-23 17:29:00,53.3,50.2,29.81,ENE,68,10.0,15.0,89,0.00,,SKC,0.66,VWS V13.00,2013-03-23 22:29:00,
2013-03-23 17:34:00,53.2,50.0,29.81,ENE,74,8.0,13.0,89,0.00,,SKC,0.66,VWS V13.00,2013-03-23 22:34:00,
2013-03-23 17:39:00,53.1,50.0,29.80,ENE,77,8.0,13.0,89,0.00,,SKC,0.66,VWS V13.00,2013-03-23 22:39:00,
2013-03-23 17:44:00,53.0,49.8,29.80,East,88,8.0,14.0,89,0.00,,SKC,0.66,VWS V13.00,2013-03-23 22:44:00,
2013-03-23 17:49:00,52.9,50.0,29.79,East,88,6.0,14.0,90,0.00,,SKC,0.66,VWS V13.00,2013-03-23 22:49:00,
2013-03-23 17:54:00,52.8,50.0,29.78,East,94,10.0,14.0,90,0.00,,SKC,0.66,VWS V13.00,2013-03-23 22:54:00,
2013-03-23 17:59:00,52.7,49.8,29.78,East,81,9.0,14.0,90,0.00,,SKC,0.66,VWS V13.00,2013-03-23 22:59:00,
2013-03-23 18:04:00,52.7,49.8,29.77,ENE,68,12.0,12.0,90,0.00,,SKC,0.66,VWS V13.00,2013-03-23 23:04:00,
2013-03-23 18:09:00,52.9,50.0,29.77,East,88,9.0,14.0,90,0.00,,SKC,0.66,VWS V13.00,2013-03-23 23:09:00,
2013-03-23 18:14:00,52.9,49.8,29.76,East,92,5.0,16.0,89,0.00,,SKC,0.66,VWS V13.00,2013-03-23 23:14:00,
2013-03-23 18:19:00,52.7,49.8,29.77,East,99,5.0,16.0,90,0.00,,SKC,0.66,VWS V13.00,2013-03-23 23:19:00,
2013-03-23 18:24:00,52.5,49.7,29.77,East,94,7.0,16.0,90,0.00,,SKC,0.66,VWS V13.00,2013-03-23 23:24:00,
2013-03-23 18:29:00,52.3,49.2,29.77,SSE,151,9.0,16.0,89,0.00,,SKC,0.66,VWS V13.00,2013-03-23 23:29:00,
2013-03-23 18:34:00,52.0,49.2,29.77,SE,133,9.0,16.0,90,0.00,,SKC,0.66,VWS V13.00,2013-03-23 23:34:00,
2013-03-23 18:39:00,51.9,49.1,29.78,SE,140,9.0,16.0,90,0.00,,SKC,0.66,VWS V13.00,2013-03-23 23:39:00,
2013-03-23 18:44:00,51.7,48.6,29.78,SE,130,6.0,16.0,89,0.00,,SKC,0.66,VWS V13.00,2013-03-23 23:44:00,
2013-03-23 18:49:00,51.5,48.7,29.79,South,169,7.0,16.0,90,0.00,,SKC,0.66,VWS V13.00,2013-03-23 23:49:00,
2013-03-23 18:54:00,51.4,48.6,29.79,SE,136,13.0,16.0,90,0.00,,SKC,0.66,VWS V13.00,2013-03-23 23:54:00,
2013-03-23 18:59:00,51.2,48.1,29.79,SSE,150,9.0,16.0,89,0.00,,SKC,0.66,VWS V13.00,2013-03-23 23:59:00,
2013-03-23 19:04:00,51.0,48.2,29.79,ESE,113,7.0,9.0,90,0.00,,SKC,0.66,VWS V13.00,2013-03-24 00:04:00,
2013-03-23 19:09:00,51.0,48.2,29.78,East,98,5.0,9.0,90,0.00,,SKC,0.66,VWS V13.00,2013-03-24 00:09:00,
2013-03-23 19:14:00,50.9,48.1,29.77,East,82,7.0,11.0,90,0.00,,SKC,0.66,VWS V13.00,2013-03-24 00:14:00,
2013-03-23 19:19:00,50.9,48.1,29.78,ENE,74,7.0,11.0,90,0.00,,SKC,0.66,VWS V13.00,2013-03-24 00:19:00,
2013-03-23 19:24:00,51.0,48.2,29.78,East,84,6.0,11.0,90,0.00,,SKC,0.66,VWS V13.00,2013-03-24 00:24:00,
2013-03-23 19:29:00,51.0,48.2,29.78,SE,130,8.0,11.0,90,0.00,,SKC,0.66,VWS V13.00,2013-03-24 00:29:00,
2013-03-23 19:34:00,51.0,48.2,29.77,East,82,6.0,9.0,90,0.00,,SKC,0.66,VWS V13.00,2013-03-24 00:34:00,
2013-03-23 19:39:00,50.9,48.1,29.78,ESE,104,6.0,9.0,90,0.00,,SKC,0.66,VWS V13.00,2013-03-24 00:39:00,
2013-03-23 19:44:00,50.9,48.4,29.78,East,97,5.0,9.0,91,0.00,,SKC,0.66,VWS V13.00,2013-03-24 00:44:00,
2013-03-23 19:49:00,50.9,48.4,29.76,East,94,7.0,10.0,91,0.00,,SKC,0.66,VWS V13.00,2013-03-24 00:49:00,
2013-03-23 19:54:00,50.9,48.4,29.76,East,97,5.0,11.0,91,0.00,,SKC,0.66,VWS V13.00,2013-03-24 00:54:00,
2013-03-23 19:59:00,50.9,48.4,29.77,East,82,4.0,11.0,91,0.00,,SKC,0.66,VWS V13.00,2013-03-24 00:59:00,
2013-03-23 20:04:00,50.8,48.3,29.75,ESE,119,5.0,8.0,91,0.00,,SKC,0.66,VWS V13.00,2013-03-24 01:04:00,
2013-03-23 20:09:00,50.7,48.5,29.75,East,80,2.0,9.0,92,0.00,,SKC,0.66,VWS V13.00,2013-03-24 01:09:00,
2013-03-23 20:14:00,50.7,48.5,29.76,SE,126,3.0,9.0,92,0.00,,SKC,0.66,VWS V13.00,2013-03-24 01:14:00,
2013-03-23 20:19:00,50.8,48.6,29.76,SSE,161,4.0,9.0,92,0.00,,SKC,0.66,VWS V13.00,2013-03-24 01:19:00,
2013-03-23 20:24:00,50.8,48.6,29.75,ESE,102,10.0,10.0,92,0.00,,SKC,0.66,VWS V13.00,2013-03-24 01:24:00,
2013-03-23 20:29:00,50.8,48.6,29.74,East,89,8.0,12.0,92,0.00,,SKC,0.66,VWS V13.00,2013-03-24 01:29:00,
2013-03-23 20:34:00,50.8,48.6,29.73,ESE,116,9.0,12.0,92,0.00,,SKC,0.66,VWS V13.00,2013-03-24 01:34:00,
2013-03-23 20:39:00,50.7,48.8,29.75,SE,130,5.0,12.0,93,0.00,,SKC,0.66,VWS V13.00,2013-03-24 01:39:00,
2013-03-23 20:44:00,50.7,48.8,29.74,ESE,112,9.0,18.0,93,0.00,,SKC,0.66,VWS V13.00,2013-03-24 01:44:00,
2013-03-23 20:49:00,50.7,48.8,29.75,SE,129,8.0,18.0,93,0.00,,SKC,0.66,VWS V13.00,2013-03-24 01:49:00,
2013-03-23 20:54:00,50.7,49.0,29.71,ESE,102,10.0,18.0,94,0.00,,SKC,0.66,VWS V13.00,2013-03-24 01:54:00,
2013-03-23 20:59:00,50.7,49.0,29.70,East,88,11.0,18.0,94,0.00,,SKC,0.66,VWS V13.00,2013-03-24 01:59:00,
2013-03-23 21:04:00,50.7,49.0,29.69,East,82,10.0,14.0,94,0.00,,SKC,0.66,VWS V13.00,2013-03-24 02:04:00,
2013-03-23 21:09:00,50.7,49.0,29.69,ESE,106,11.0,15.0,94,0.00,,SKC,0.66,VWS V13.00,2013-03-24 02:09:00,
2013-03-23 21:14:00,50.9,49.2,29.69,ESE,107,7.0,18.0,94,0.00,,SKC,0.66,VWS V13.00,2013-03-24 02:14:00,
2013-03-23 21:19:00,50.9,49.2,29.70,East,94,11.0,18.0,94,0.00,,SKC,0.66,VWS V13.00,2013-03-24 02:19:00,
2013-03-23 21:24:00,51.0,49.3,29.69,East,100,7.0,18.0,94,0.00,,SKC,0.66,VWS V13.00,2013-03-24 02:24:00,
2013-03-23 21:29:00,51.0,49.3,29.69,SSE,155,5.0,18.0,94,0.00,,SKC,0.66,VWS V13.00,2013-03-24 02:29:00,
2013-03-23 21:34:00,51.1,49.4,29.69,East,101,7.0,10.0,94,0.00,,SKC,0.66,VWS V13.00,2013-03-24 02:34:00,
2013-03-23 21:39:00,51.2,49.5,29.68,East,80,7.0,13.0,94,0.00,,SKC,0.66,VWS V13.00,2013-03-24 02:39:00,
2013-03-23 21:44:00,51.3,49.6,29.68,ESE,119,6.0,18.0,94,0.00,,SKC,0.66,VWS V13.00,2013-03-24 02:44:00,
2013-03-23 21:48:00,51.3,49.6,29.69,ESE,115,5.0,18.0,94,0.00,,SKC,0.66,VWS V13.00,2013-03-24 02:48:00,
2013-03-23 21:54:00,51.3,49.6,29.68,SSE,158,9.0,18.0,94,0.00,,SKC,0.66,VWS V13.00,2013-03-24 02:54:00,
2013-03-23 21:59:00,51.4,49.7,29.69,ENE,61,4.0,18.0,94,0.00,,SKC,0.66,VWS V13.00,2013-03-24 02:59:00,
2013-03-23 22:04:00,51.4,49.7,29.68,ESE,105,7.0,13.0,94,0.00,,SKC,0.66,VWS V13.00,2013-03-24 03:04:00,
2013-03-23 22:09:00,51.4,49.7,29.69,East,80,5.0,13.0,94,0.00,,SKC,0.66,VWS V13.00,2013-03-24 03:09:00,
2013-03-23 22:13:00,51.5,49.8,29.68,East,97,6.0,13.0,94,0.00,,SKC,0.66,VWS V13.00,2013-03-24 03:13:00,
2013-03-23 22:18:00,51.5,49.8,29.70,East,88,7.0,13.0,94,0.01,,SKC,0.67,VWS V13.00,2013-03-24 03:18:00,
2013-03-23 22:23:00,51.5,49.8,29.73,SSE,155,0.0,13.0,94,0.01,,SKC,0.67,VWS V13.00,2013-03-24 03:23:00,
2013-03-23 22:28:00,51.6,49.9,29.76,ESE,106,2.0,13.0,94,0.01,,SKC,0.67,VWS V13.00,2013-03-24 03:28:00,
2013-03-23 22:33:00,51.7,50.0,29.77,NNW,346,8.0,8.0,94,0.03,,SKC,0.70,VWS V13.00,2013-03-24 03:33:00,
2013-03-23 22:38:00,51.5,50.4,29.76,NNW,344,7.0,15.0,96,0.08,,SKC,0.75,VWS V13.00,2013-03-24 03:38:00,
2013-03-23 22:43:00,51.5,50.4,29.78,NNW,340,9.0,15.0,96,0.11,,SKC,0.77,VWS V13.00,2013-03-24 03:43:00,
2013-03-23 22:48:00,51.4,50.3,29.77,NE,36,9.0,15.0,96,0.15,,SKC,0.81,VWS V13.00,2013-03-24 03:48:00,
2013-03-23 22:53:00,51.3,50.2,29.75,NNE,24,9.0,15.0,96,0.22,,SKC,0.89,VWS V13.00,2013-03-24 03:53:00,
2013-03-23 22:59:00,51.2,50.1,29.75,NE,53,12.0,18.0,96,0.25,,SKC,0.92,VWS V13.00,2013-03-24 03:59:00,
2013-03-23 23:00:00,51.2,50.1,29.74,NE,43,16.0,18.0,96,0.26,,SKC,0.93,VWS V13.00,2013-03-24 04:00:00,
2013-03-23 23:05:00,51.1,50.0,29.73,ENE,61,11.0,16.0,96,0.28,,SKC,0.94,VWS V13.00,2013-03-24 04:05:00,
2013-03-23 23:10:00,51.0,50.2,29.72,NE,52,10.0,20.0,97,0.30,,SKC,0.97,VWS V13.00,2013-03-24 04:10:00,
2013-03-23 23:15:00,51.0,50.2,29.72,ENE,59,12.0,20.0,97,0.32,,SKC,0.99,VWS V13.00,2013-03-24 04:15:00,
2013-03-23 23:20:00,51.1,50.3,29.73,NE,51,6.0,20.0,97,0.35,,SKC,1.01,VWS V13.00,2013-03-24 04:20:00,
2013-03-23 23:25:00,51.2,50.4,29.74,NNE,30,9.0,20.0,97,0.37,,SKC,1.03,VWS V13.00,2013-03-24 04:25:00,
2013-03-23 23:30:00,51.2,50.4,29.76,ENE,67,5.0,20.0,97,0.39,,SKC,1.05,VWS V13.00,2013-03-24 04:30:00,
2013-03-23 23:35:00,51.3,50.5,29.78,East,92,0.0,3.0,97,0.38,,SKC,1.08,VWS V13.00,2013-03-24 04:35:00,
2013-03-23 23:40:00,51.3,50.5,29.79,East,86,1.0,3.0,97,0.43,,SKC,1.13,VWS V13.00,2013-03-24 04:40:00,
2013-03-23 23:45:00,51.3,50.5,29.78,North,360,3.0,6.0,97,0.46,,SKC,1.16,VWS V13.00,2013-03-24 04:45:00,
2013-03-23 23:50:00,51.3,50.5,29.77,North,5,4.0,7.0,97,0.50,,SKC,1.19,VWS V13.00,2013-03-24 04:50:00,
2013-03-23 23:55:00,51.2,50.4,29.76,NNE,17,2.0,7.0,97,0.53,,SKC,1.23,VWS V13.00,2013-03-24 04:55:00,